KE5JJC Weather Reports


Display with metric or nautical units.
time (UTC)temp
F
wind
direction
speed
MPH
gust
MPH
rain 1hr
in
rain 24hr
in
rain mn
in
humidity
%
barometer
mb
20260505200030 72 28 0.0 5.0 0.00 0.00 0.00 29 1010.3
20260505194523 73 233 1.0 6.0 0.00 0.00 0.00 31 1010.5
20260505193010 73 183 0.0 4.0 0.00 0.00 0.00 28 1010.5
20260505191507 71 117 1.0 5.0 0.00 0.00 0.00 30 1010.7
20260505190045 71 47 0.0 5.0 0.00 0.00 0.00 34 1010.8
20260505184547 70 36 1.0 4.0 0.00 0.00 0.00 33 1010.8
20260505183035 69 80 1.0 6.0 0.00 0.00 0.00 34 1010.9
20260505181529 68 94 1.0 7.0 0.00 0.00 0.00 35 1010.9
20260505180034 68 96 1.0 7.0 0.00 0.00 0.00 41 1010.9
20260505174611 66 107 1.0 6.0 0.00 0.00 0.00 41 1010.9
20260505174504 66 105 1.0 6.0 0.00 0.00 0.00 42 1010.9
20260505173057 65 119 0.0 4.0 0.00 0.00 0.00 44 1011.0
20260505171536 65 347 0.0 2.0 0.00 0.00 0.00 44 1011.0
20260505170025 63 313 0.0 5.0 0.00 0.00 0.00 48 1011.2
20260505164518 61 105 0.0 4.0 0.00 0.00 0.00 51 1011.1
20260505163009 59 114 0.0 4.0 0.00 0.00 0.00 51 1011.2
20260505161508 56 86 0.0 4.0 0.00 0.00 0.00 61 1011.2
20260505153034 53 340 0.0 2.0 0.00 0.00 0.00 61 1011.4
20260505151532 52 97 0.0 1.0 0.00 0.00 0.00 64 1011.4
20260505124546 0 0.0 0.0 0.00 0.00 0.00 1010.1
20260505123040 0 0.0 0.0 0.00 0.00 0.00 1010.0
20260505121553 0 0.0 0.0 0.00 0.00 0.00 1009.9
20260505114556 49 326 0.0 0.0 0.00 0.00 0.00 61 1009.9
20260505113046 49 308 0.0 0.0 0.00 0.00 0.00 61 1009.7
20260505111534 49 309 0.0 0.0 0.00 0.00 0.00 60 1009.6
20260505101527 50 309 0.0 0.0 0.00 0.00 0.00 59 1009.4
20260505100012 51 309 0.0 0.0 0.00 0.00 0.00 57 1009.4
20260505094547 51 308 0.0 0.0 0.00 0.00 0.00 56 1009.2
20260505093036 51 309 0.0 0.0 0.00 0.00 0.00 56 1009.1
20260505091542 52 309 0.0 1.0 0.00 0.00 0.00 55 1009.1
20260505090029 52 340 0.0 0.0 0.00 0.00 0.00 56 1009.1
20260505084525 53 339 0.0 1.0 0.00 0.00 0.00 54 1009.1
20260505083013 53 340 0.0 0.0 0.00 0.00 0.00 53 1008.9
20260505081506 54 340 0.0 1.0 0.00 0.00 0.00 51 1008.8
20260505080103 55 340 0.0 0.0 0.00 0.00 0.00 50 1008.6
20260505074551 56 340 0.0 0.0 0.00 0.00 0.00 47 1008.5
20260505073055 57 286 0.0 1.0 0.00 0.00 0.00 45 1008.5
20260505071553 58 286 0.0 1.0 0.00 0.00 0.00 43 1008.3
20260505070045 59 286 0.0 0.0 0.00 0.00 0.00 41 1008.2
20260505064549 60 286 0.0 0.0 0.00 0.00 0.00 40 1008.0
20260505063055 61 286 0.0 1.0 0.00 0.00 0.00 38 1008.0
20260505061555 61 286 0.0 0.0 0.00 0.00 0.00 37 1007.8
20260505060047 62 286 0.0 1.0 0.00 0.00 0.00 36 1007.8
20260505054549 62 286 0.0 1.0 0.00 0.00 0.00 36 1007.7
20260505053039 63 286 0.0 1.0 0.00 0.00 0.00 36 1007.6
20260505051539 63 286 0.0 1.0 0.00 0.00 0.00 36 1007.6
20260505041517 63 326 0.0 1.0 0.00 0.00 0.00 37 1007.2
20260505040009 64 294 0.0 1.0 0.00 0.00 0.00 36 1007.0
20260505034555 65 279 0.0 1.0 0.00 0.00 0.00 35 1006.8
20260505033052 65 290 0.0 1.0 0.00 0.00 0.00 34 1006.5
20260505031552 66 290 0.0 1.0 0.00 0.00 0.00 32 1006.3
20260505030041 67 241 0.0 1.0 0.00 0.00 0.00 31 1006.1
20260505024541 68 355 0.0 1.0 0.00 0.00 0.00 31 1006.0
20260505023029 69 318 0.0 0.0 0.00 0.00 0.00 32 1005.9
20260505021519 70 292 0.0 4.0 0.00 0.00 0.00 32 1005.9
20260505020058 71 11 0.0 1.0 0.00 0.00 0.00 32 1005.8
20260505020005 71 11 0.0 1.0 0.00 0.00 0.00 32 1005.8
20260505014551 72 335 0.0 2.0 0.00 0.00 0.00 30 1005.7
20260505013032 73 43 0.0 2.0 0.00 0.00 0.00 31 1005.8
20260505011531 73 31 0.0 4.0 0.00 0.00 0.00 29 1005.9
20260505010112 74 281 0.0 2.0 0.00 0.00 0.00 29 1005.9
20260505004555 75 339 0.0 4.0 0.00 0.00 0.00 29 1005.8
20260505003037 76 330 2.0 8.0 0.00 0.00 0.00 27 1005.9
20260505001519 76 270 0.0 7.0 0.00 0.00 0.00 27 1005.6
20260505000014 75 102 0.0 1.0 0.00 0.00 0.00 27 1005.6
20260504234554 76 348 0.0 5.0 0.00 0.00 0.00 32 1005.6
20260504233030 77 53 2.0 6.0 0.00 0.00 0.00 28 1005.7
20260504231530 78 30 0.0 4.0 0.00 0.00 0.00 28 1005.8
20260504230038 78 330 2.0 6.0 0.00 0.00 0.00 30 1005.7
20260504224535 78 346 0.0 9.0 0.00 0.00 0.00 27 1005.8
20260504223026 78 276 1.0 6.0 0.00 0.00 0.00 27 1005.9
20260504221542 78 182 2.0 9.0 0.00 0.00 0.00 26 1006.1
20260504220020 77 182 0.0 2.0 0.00 0.00 0.00 27 1006.4
20260504214511 75 86 2.0 5.0 0.00 0.00 0.00 29 1006.4
20260504213112 76 89 0.0 4.0 0.00 0.00 0.00 29 1006.5
20260504211556 75 93 0.0 6.0 0.00 0.00 0.00 29 1006.6
20260504210027 75 42 0.0 5.0 0.00 0.00 0.00 28 1006.6
20260504204531 74 272 1.0 4.0 0.00 0.00 0.00 28 1006.8
20260504203020 74 57 1.0 7.0 0.00 0.00 0.00 29 1006.8
20260504201516 75 292 0.0 7.0 0.00 0.00 0.00 29 1006.9